TimeCDT,TemperatureF,Dew PointF,Humidity,Sea Level PressureIn,VisibilityMPH,Wind Direction,Wind SpeedMPH,Gust SpeedMPH,PrecipitationIn,Events,Conditions,WindDirDegrees,DateUTC
12:30 AM,24.8,21.2,86,30.10,1.2,North,24.2,-,0.00,Snow,Snow,360,2013-03-24 05:30:00
12:38 AM,24.8,21.2,86,30.10,1.5,North,20.7,-,0.00,Snow,Snow,350,2013-03-24 05:38:00
12:54 AM,24.1,21.0,88,30.18,1.8,North,18.4,-,0.00,Snow,Snow,350,2013-03-24 05:54:00
1:50 AM,23.0,19.4,86,30.12,2.5,North,25.3,31.1,0.00,Snow,Snow,360,2013-03-24 06:50:00
1:54 AM,23.0,19.9,88,30.20,3.0,North,25.3,31.1,0.00,Snow,Snow,360,2013-03-24 06:54:00
2:37 AM,23.0,19.4,86,30.12,2.5,North,20.7,-,0.00,Snow,Snow,350,2013-03-24 07:37:00
2:44 AM,23.0,19.4,86,30.12,3.0,North,19.6,26.5,0.00,Snow,Snow,350,2013-03-24 07:44:00
2:54 AM,23.0,19.0,85,30.21,2.5,North,24.2,35.7,0.00,Snow,Snow,350,2013-03-24 07:54:00
3:05 AM,21.2,19.4,93,30.13,4.0,North,23.0,-,0.00,Snow,Snow,360,2013-03-24 08:05:00
3:54 AM,21.9,19.0,89,30.20,9.0,North,16.1,-,0.00,Snow,Snow,350,2013-03-24 08:54:00
4:54 AM,19.0,14.0,81,30.20,9.0,NNW,15.0,-,0.00,Snow,Snow,330,2013-03-24 09:54:00
5:54 AM,16.0,10.9,81,30.22,9.0,NNW,16.1,-,0.00,Snow,Snow,330,2013-03-24 10:54:00
6:54 AM,14.0,10.0,84,30.25,10.0,NW,12.7,-,0.00,,Clear,320,2013-03-24 11:54:00
7:54 AM,12.0,8.1,84,30.26,10.0,NNW,11.5,-,N/A,,Clear,330,2013-03-24 12:54:00
8:54 AM,12.9,8.1,81,30.27,10.0,NNW,12.7,-,N/A,,Clear,330,2013-03-24 13:54:00
9:54 AM,17.1,12.0,81,30.27,10.0,NNW,13.8,-,N/A,,Clear,340,2013-03-24 14:54:00
10:54 AM,19.9,15.1,81,30.29,10.0,North,12.7,-,N/A,,Clear,350,2013-03-24 15:54:00
11:54 AM,23.0,15.1,72,30.28,10.0,North,12.7,-,0.00,,Clear,360,2013-03-24 16:54:00
12:54 PM,25.0,18.0,75,30.27,10.0,North,12.7,-,N/A,,Clear,350,2013-03-24 17:54:00
1:54 PM,28.0,19.9,72,30.25,10.0,NNW,10.4,-,N/A,,Clear,330,2013-03-24 18:54:00
2:54 PM,30.9,21.0,67,30.22,10.0,North,15.0,19.6,N/A,,Clear,350,2013-03-24 19:54:00
3:54 PM,33.1,19.9,59,30.20,10.0,NNW,11.5,-,N/A,,Clear,330,2013-03-24 20:54:00
4:54 PM,35.1,12.9,40,30.20,10.0,North,13.8,-,N/A,,Clear,350,2013-03-24 21:54:00
5:54 PM,34.0,12.0,40,30.21,10.0,North,11.5,-,N/A,,Clear,350,2013-03-24 22:54:00
6:54 PM,33.1,10.9,40,30.21,10.0,North,17.3,-,N/A,,Clear,360,2013-03-24 23:54:00
7:54 PM,28.9,14.0,54,30.23,10.0,North,9.2,-,N/A,,Clear,360,2013-03-25 00:54:00
8:54 PM,25.0,17.1,72,30.27,10.0,North,9.2,-,N/A,,Clear,360,2013-03-25 01:54:00
9:54 PM,25.0,17.1,72,30.28,10.0,North,9.2,-,N/A,,Clear,350,2013-03-25 02:54:00
10:54 PM,24.1,17.1,75,30.30,10.0,NNW,10.4,-,N/A,,Clear,330,2013-03-25 03:54:00
11:54 PM,25.0,18.0,75,30.31,10.0,NNW,13.8,-,N/A,,Clear,340,2013-03-25 04:54:00